DW0805 Weather Reports


Display with metric or nautical units.
time (UTC)temp
F
wind
direction
speed
MPH
gust
MPH
rain 1hr
in
rain 24hr
in
rain mn
in
humidity
%
barometer
mb
20260507182513 52 298 3.0 7.0 0.00 0.00 0.00 71 1017.7
20260507181514 52 280 3.0 7.0 0.00 0.00 0.00 70 1017.8
20260507180514 53 285 4.0 8.0 0.00 0.00 0.00 68 1017.7
20260507175514 54 329 5.0 8.0 0.00 0.00 0.00 66 1017.7
20260507174513 56 296 5.0 8.0 0.00 0.00 0.00 63 1017.6
20260507170515 60 311 4.0 8.0 0.00 0.00 0.00 50 1017.4
20260507165514 61 339 2.0 7.0 0.00 0.00 0.00 48 1017.3
20260507162514 61 337 4.0 8.0 0.00 0.00 0.00 49 1017.4
20260507155514 60 351 6.0 10.0 0.00 0.00 0.00 55 1017.4
20260507154515 60 290 5.0 8.0 0.00 0.00 0.00 58 1017.5
20260507153513 60 353 5.0 9.0 0.00 0.00 0.00 54 1017.4
20260507152513 61 309 6.0 10.0 0.00 0.00 0.00 53 1017.4
20260507151513 60 352 5.0 10.0 0.00 0.00 0.00 55 1017.2
20260507143514 60 347 4.0 10.0 0.00 0.00 0.00 59 1017.2
20260507134514 60 343 5.0 8.0 0.00 0.00 0.00 56 1017.4
20260507132514 60 346 5.0 12.0 0.00 0.00 0.00 58 1017.3
20260507131514 60 339 4.0 10.0 0.00 0.00 0.00 58 1017.3
20260507130513 59 331 4.0 12.0 0.00 0.00 0.00 57 1017.2
20260507125514 59 324 8.0 12.0 0.00 0.00 0.00 51 1017.2
20260507123515 59 335 5.0 10.0 0.00 0.00 0.00 58 1017.1
20260507121514 59 348 6.0 10.0 0.00 0.00 0.00 57 1017.0
20260507115515 59 306 4.0 12.0 0.00 0.00 0.00 63 1017.0
20260507113514 59 347 6.0 10.0 0.00 0.00 0.00 60 1017.0
20260507111514 59 339 4.0 12.0 0.00 0.00 0.00 70 1017.0
20260507110514 58 279 6.0 13.0 0.00 0.00 0.00 68 1017.0
20260507105514 58 318 6.0 10.0 0.00 0.00 0.00 68 1017.0
20260507104515 58 334 6.0 12.0 0.00 0.00 0.00 67 1016.9
20260507103513 58 311 5.0 9.0 0.00 0.00 0.00 68 1016.9
20260507101514 57 316 6.0 12.0 0.00 0.00 0.00 67 1016.8
20260507100514 57 325 6.0 10.0 0.00 0.00 0.00 63 1016.7
20260507095513 56 279 6.0 12.0 0.00 0.00 0.00 69 1016.7
20260507094513 56 293 3.0 10.0 0.00 0.00 0.00 71 1016.7
20260507093513 57 352 5.0 9.0 0.00 0.00 0.00 71 1016.6
20260507092513 57 284 5.0 12.0 0.00 0.00 0.00 71 1016.5
20260507085513 56 308 5.0 12.0 0.00 0.00 0.00 71 1016.4
20260507084513 56 321 5.0 12.0 0.00 0.00 0.00 71 1016.3
20260507083513 55 312 5.0 12.0 0.00 0.00 0.00 75 1016.2
20260507080513 54 299 8.0 10.0 0.00 0.00 0.00 76 1015.9
20260507074514 54 347 6.0 10.0 0.00 0.00 0.00 76 1015.8
20260507070514 54 253 3.0 9.0 0.00 0.00 0.00 77 1015.5
20260507065512 54 267 3.0 7.0 0.00 0.00 0.00 76 1015.4
20260507063513 54 250 1.0 6.0 0.00 0.00 0.00 77 1015.4
20260507062513 52 218 2.0 7.0 0.00 0.00 0.00 78 1015.3
20260507053513 48 309 0.0 2.0 0.00 0.00 0.00 87 1015.2
20260507045513 44 240 0.0 1.0 0.00 0.00 0.00 93 1014.9
20260507042513 40 235 0.0 0.0 0.00 0.00 0.00 94 1014.7
20260507041513 38 307 0.0 0.0 0.00 0.00 0.00 93 1014.6
20260507040513 38 244 0.0 0.0 0.00 0.00 0.00 93 1014.6
20260507031514 39 237 2.0 3.0 0.00 0.00 0.00 92 1014.3
20260507025513 38 236 0.0 2.0 0.00 0.00 0.00 92 1014.1
20260507024514 39 236 1.0 2.0 0.00 0.00 0.00 92 1014.1
20260507022514 38 236 0.0 0.0 0.00 0.00 0.00 92 1013.9
20260507021514 38 236 0.0 3.0 0.00 0.00 0.00 91 1013.9
20260507020513 39 236 0.0 2.0 0.00 0.00 0.00 91 1013.8
20260507015513 39 236 0.0 1.0 0.00 0.00 0.00 91 1013.7
20260507014513 39 236 0.0 0.0 0.00 0.00 0.00 91 1013.8
20260507013513 39 236 0.0 2.0 0.00 0.00 0.00 90 1013.7
20260507000513 44 235 1.0 6.0 0.00 0.00 0.00 88 1013.4
20260506235514 45 211 5.0 8.0 0.00 0.00 0.00 88 1013.4
20260506234514 45 189 3.0 7.0 0.00 0.00 0.00 88 1013.3
20260506232514 45 195 3.0 7.0 0.00 0.00 0.00 88 1013.4
20260506230513 45 187 3.0 6.0 0.00 0.00 0.00 87 1013.3
20260506225514 45 192 3.0 6.0 0.00 0.00 0.00 87 1013.2
20260506224514 45 196 2.0 7.0 0.00 0.00 0.00 86 1013.3
20260506222513 46 168 5.0 7.0 0.00 0.00 0.00 86 1013.1
20260506220514 46 160 3.0 8.0 0.00 0.00 0.00 85 1013.2
20260506215513 46 164 3.0 9.0 0.00 0.00 0.00 85 1013.1
20260506214513 46 166 3.0 9.0 0.00 0.00 0.00 85 1013.1
20260506211514 46 183 5.0 8.0 0.00 0.00 0.00 83 1013.0
20260506204513 47 161 3.0 6.0 0.00 0.00 0.00 80 1012.8
20260506203513 47 202 3.0 9.0 0.00 0.00 0.00 79 1012.7
20260506202513 48 198 4.0 9.0 0.00 0.00 0.00 78 1012.6
20260506201513 48 192 4.0 8.0 0.00 0.00 0.00 77 1012.6
20260506194512 49 170 3.0 10.0 0.00 0.00 0.00 74 1012.4
20260506193513 50 184 4.0 10.0 0.00 0.00 0.00 73 1012.2
20260506191512 51 177 6.0 9.0 0.00 0.00 0.00 69 1012.0